Year,Month,Day,Hour,Minute,Value (Times are PST for windgust in km/hr)
2012,03,13,00,00,24.20
2012,03,13,00,01,27.40
2012,03,13,00,02,20.90
2012,03,13,00,03,20.90
2012,03,13,00,04,22.50
2012,03,13,00,05,19.30
2012,03,13,00,06,16.10
2012,03,13,00,07,22.50
2012,03,13,00,08,17.70
2012,03,13,00,09,19.30
2012,03,13,00,10,24.20
2012,03,13,00,11,20.90
2012,03,13,00,12,24.20
2012,03,13,00,13,17.70
2012,03,13,00,14,19.30
2012,03,13,00,15,9.60
2012,03,13,00,16,20.90
2012,03,13,00,17,20.90
2012,03,13,00,18,17.70
2012,03,13,00,19,16.10
2012,03,13,00,20,19.30
2012,03,13,00,21,14.50
2012,03,13,00,22,11.30
2012,03,13,00,23,16.10
2012,03,13,00,24,12.90
2012,03,13,00,25,11.30
2012,03,13,00,26,12.90
2012,03,13,00,27,11.30
2012,03,13,00,28,11.30
2012,03,13,00,29,17.70
2012,03,13,00,30,14.50
2012,03,13,00,31,17.70
2012,03,13,00,32,9.60
2012,03,13,00,33,9.60
2012,03,13,00,34,11.30
2012,03,13,00,35,16.10
2012,03,13,00,36,11.30
2012,03,13,00,37,11.30
2012,03,13,00,38,11.30
2012,03,13,00,39,11.30
2012,03,13,00,40,11.30
2012,03,13,00,41,20.90
2012,03,13,00,42,16.10
2012,03,13,00,43,9.60
2012,03,13,00,44,9.60
2012,03,13,00,45,11.30
2012,03,13,00,46,11.30
2012,03,13,00,47,24.20
2012,03,13,00,48,17.70
2012,03,13,00,49,19.30
2012,03,13,00,50,14.50
2012,03,13,00,51,22.50
2012,03,13,00,52,17.70
2012,03,13,00,53,24.20
2012,03,13,00,54,27.40
2012,03,13,00,55,19.30
2012,03,13,00,56,11.30
2012,03,13,00,57,12.90
2012,03,13,00,58,9.60
2012,03,13,00,59,16.10
2012,03,13,01,00,22.50
2012,03,13,01,01,20.90
2012,03,13,01,02,19.30
2012,03,13,01,03,14.50
2012,03,13,01,04,14.50
2012,03,13,01,05,8.10
2012,03,13,01,06,8.10
2012,03,13,01,07,11.30
2012,03,13,01,08,11.30
2012,03,13,01,09,14.50
2012,03,13,01,10,11.30
2012,03,13,01,11,17.70
2012,03,13,01,12,11.30
2012,03,13,01,13,11.30
2012,03,13,01,14,14.50
2012,03,13,01,15,11.30
2012,03,13,01,16,8.10
2012,03,13,01,17,9.60
2012,03,13,01,18,8.10
2012,03,13,01,19,9.60
2012,03,13,01,20,14.50
2012,03,13,01,21,17.70
2012,03,13,01,22,14.50
2012,03,13,01,23,9.60
2012,03,13,01,24,9.60
2012,03,13,01,25,11.30
2012,03,13,01,26,14.50
2012,03,13,01,27,9.60
2012,03,13,01,28,11.30
2012,03,13,01,29,11.30
2012,03,13,01,30,11.30
2012,03,13,01,31,11.30
2012,03,13,01,32,14.50
2012,03,13,01,33,16.10
2012,03,13,01,34,20.90
2012,03,13,01,35,14.50
2012,03,13,01,36,17.70
2012,03,13,01,37,22.50
2012,03,13,01,38,11.30
2012,03,13,01,39,17.70
2012,03,13,01,40,14.50
2012,03,13,01,41,14.50
2012,03,13,01,42,20.90
2012,03,13,01,43,19.30
2012,03,13,01,44,20.90
2012,03,13,01,45,17.70
2012,03,13,01,46,17.70
2012,03,13,01,47,12.90
2012,03,13,01,48,8.10
2012,03,13,01,49,20.90
2012,03,13,01,50,17.70
2012,03,13,01,51,17.70
2012,03,13,01,52,22.50
2012,03,13,01,53,16.10
2012,03,13,01,54,16.10
2012,03,13,01,55,17.70
2012,03,13,01,56,19.30
2012,03,13,01,57,11.30
2012,03,13,01,58,19.30
2012,03,13,01,59,16.10
2012,03,13,02,00,11.30
2012,03,13,02,01,22.50
2012,03,13,02,02,25.70
2012,03,13,02,03,25.70
2012,03,13,02,04,19.30
2012,03,13,02,05,19.30
2012,03,13,02,06,25.70
2012,03,13,02,07,24.20
2012,03,13,02,08,24.20
2012,03,13,02,09,25.70
2012,03,13,02,10,32.20
2012,03,13,02,11,30.60
2012,03,13,02,12,24.20
2012,03,13,02,13,16.10
2012,03,13,02,14,25.70
2012,03,13,02,15,20.90
2012,03,13,02,16,25.70
2012,03,13,02,17,25.70
2012,03,13,02,18,35.40
2012,03,13,02,19,22.50
2012,03,13,02,20,17.70
2012,03,13,02,21,20.90
2012,03,13,02,22,37.00
2012,03,13,02,23,35.40
2012,03,13,02,24,20.90
2012,03,13,02,25,22.50
2012,03,13,02,26,35.40
2012,03,13,02,27,24.20
2012,03,13,02,28,25.70
2012,03,13,02,29,19.30
2012,03,13,02,30,25.70
2012,03,13,02,31,20.90
2012,03,13,02,32,22.50
2012,03,13,02,33,24.20
2012,03,13,02,34,29.00
2012,03,13,02,35,27.40
2012,03,13,02,36,29.00
2012,03,13,02,37,25.70
2012,03,13,02,38,25.70
2012,03,13,02,39,29.00
2012,03,13,02,40,16.10
2012,03,13,02,41,19.30
2012,03,13,02,42,19.30
2012,03,13,02,43,24.20
2012,03,13,02,44,22.50
2012,03,13,02,45,19.30
2012,03,13,02,46,20.90
2012,03,13,02,47,20.90
2012,03,13,02,48,19.30
2012,03,13,02,49,20.90
2012,03,13,02,50,16.10
2012,03,13,02,51,19.30
2012,03,13,02,52,14.50
2012,03,13,02,53,11.30
2012,03,13,02,54,17.70
2012,03,13,02,55,16.10
2012,03,13,02,56,16.10
2012,03,13,02,57,8.10
2012,03,13,02,58,11.30
2012,03,13,02,59,8.10
2012,03,13,03,00,6.40
2012,03,13,03,01,9.60
2012,03,13,03,02,12.90
2012,03,13,03,03,17.70
2012,03,13,03,04,17.70
2012,03,13,03,05,17.70
2012,03,13,03,06,27.40
2012,03,13,03,07,19.30
2012,03,13,03,08,33.80
2012,03,13,03,09,25.70
2012,03,13,03,10,27.40
2012,03,13,03,11,17.70
2012,03,13,03,12,22.50
2012,03,13,03,13,11.30
2012,03,13,03,14,16.10
2012,03,13,03,15,22.50
2012,03,13,03,16,25.70
2012,03,13,03,17,11.30
2012,03,13,03,18,16.10
2012,03,13,03,19,17.70
2012,03,13,03,20,19.30
2012,03,13,03,21,19.30
2012,03,13,03,22,16.10
2012,03,13,03,23,19.30
2012,03,13,03,24,24.20
2012,03,13,03,25,24.20
2012,03,13,03,26,24.20
2012,03,13,03,27,25.70
2012,03,13,03,28,24.20
2012,03,13,03,29,19.30
2012,03,13,03,30,16.10
2012,03,13,03,31,17.70
2012,03,13,03,32,17.70
2012,03,13,03,33,17.70
2012,03,13,03,34,11.30
2012,03,13,03,35,17.70
2012,03,13,03,36,14.50
2012,03,13,03,37,9.60
2012,03,13,03,38,8.10
2012,03,13,03,39,6.40
2012,03,13,03,40,14.50
2012,03,13,03,41,9.60
2012,03,13,03,42,6.40
2012,03,13,03,43,4.80
2012,03,13,03,44,4.80
2012,03,13,03,45,9.60
2012,03,13,03,46,16.10
2012,03,13,03,47,11.30
2012,03,13,03,48,6.40
2012,03,13,03,49,4.80
2012,03,13,03,50,6.40
2012,03,13,03,51,6.40
2012,03,13,03,52,6.40
2012,03,13,03,53,3.20
2012,03,13,03,55,3.20
2012,03,13,03,56,3.20
2012,03,13,03,57,4.80
2012,03,13,03,59,8.10
2012,03,13,04,00,8.10
2012,03,13,04,01,4.80
2012,03,13,04,02,3.20
2012,03,13,04,03,3.20
2012,03,13,04,08,3.20
2012,03,13,04,09,4.80
2012,03,13,04,10,3.20
2012,03,13,04,15,1.60
2012,03,13,04,16,1.60
2012,03,13,04,19,1.60
2012,03,13,04,20,3.20
2012,03,13,04,25,1.60
2012,03,13,04,27,4.80
2012,03,13,04,28,4.80
2012,03,13,04,29,3.20
2012,03,13,04,30,6.40
2012,03,13,04,31,6.40
2012,03,13,04,32,6.40
2012,03,13,04,33,6.40
2012,03,13,04,34,6.40
2012,03,13,04,35,4.80
2012,03,13,04,36,1.60
2012,03,13,04,37,1.60
2012,03,13,04,38,4.80
2012,03,13,04,39,8.10
2012,03,13,04,40,8.10
2012,03,13,04,43,8.10
2012,03,13,04,44,6.40
2012,03,13,04,45,6.40
2012,03,13,04,47,8.10
2012,03,13,04,48,6.40
2012,03,13,04,49,8.10
2012,03,13,04,50,8.10
2012,03,13,04,51,12.90
2012,03,13,04,52,9.60
2012,03,13,04,53,11.30
2012,03,13,04,54,9.60
2012,03,13,04,55,16.10
2012,03,13,04,56,14.50
2012,03,13,04,57,11.30
2012,03,13,04,58,11.30
2012,03,13,04,59,11.30
2012,03,13,05,00,17.70
2012,03,13,05,01,9.60
2012,03,13,05,02,9.60
2012,03,13,05,03,9.60
2012,03,13,05,04,6.40
2012,03,13,05,05,9.60
2012,03,13,05,06,19.30
2012,03,13,05,07,14.50
2012,03,13,05,08,9.60
2012,03,13,05,09,14.50
2012,03,13,05,10,22.50
2012,03,13,05,11,14.50
2012,03,13,05,12,11.30
2012,03,13,05,13,6.40
2012,03,13,05,14,14.50
2012,03,13,05,15,6.40
2012,03,13,05,16,19.30
2012,03,13,05,17,20.90
2012,03,13,05,18,17.70
2012,03,13,05,19,14.50
2012,03,13,05,20,14.50
2012,03,13,05,21,16.10
2012,03,13,05,22,9.60
2012,03,13,05,23,9.60
2012,03,13,05,24,8.10
2012,03,13,05,25,9.60
2012,03,13,05,26,14.50
2012,03,13,05,27,9.60
2012,03,13,05,28,4.80
2012,03,13,05,29,4.80
2012,03,13,05,30,8.10
2012,03,13,05,31,8.10
2012,03,13,05,32,4.80
2012,03,13,05,34,6.40
2012,03,13,05,35,4.80
2012,03,13,05,36,3.20
2012,03,13,05,37,3.20
2012,03,13,05,38,6.40
2012,03,13,05,39,6.40
2012,03,13,05,40,4.80
2012,03,13,05,42,6.40
2012,03,13,05,43,4.80
2012,03,13,05,45,4.80
2012,03,13,05,46,4.80
2012,03,13,05,47,11.30
2012,03,13,05,48,9.60
2012,03,13,05,49,8.10
2012,03,13,05,50,4.80
2012,03,13,05,53,9.60
2012,03,13,05,54,11.30
2012,03,13,05,55,6.40
2012,03,13,05,56,1.60
2012,03,13,05,57,9.60
2012,03,13,05,58,6.40
2012,03,13,05,59,8.10
2012,03,13,06,00,6.40
2012,03,13,06,01,4.80
2012,03,13,06,02,6.40
2012,03,13,06,03,6.40
2012,03,13,06,04,6.40
2012,03,13,06,12,3.20
2012,03,13,06,15,6.40
2012,03,13,06,16,6.40
2012,03,13,06,17,3.20
2012,03,13,06,27,4.80
2012,03,13,06,28,4.80
2012,03,13,06,41,3.20
2012,03,13,06,59,4.80
2012,03,13,07,00,9.60
2012,03,13,07,01,6.40
2012,03,13,07,02,6.40
2012,03,13,07,03,17.70
2012,03,13,07,04,20.90
2012,03,13,07,05,19.30
2012,03,13,07,06,17.70
2012,03,13,07,07,17.70
2012,03,13,07,08,16.10
2012,03,13,07,09,16.10
2012,03,13,07,10,16.10
2012,03,13,07,11,19.30
2012,03,13,07,12,17.70
2012,03,13,07,13,14.50
2012,03,13,07,14,19.30
2012,03,13,07,15,17.70
2012,03,13,07,16,12.90
2012,03,13,07,17,16.10
2012,03,13,07,18,9.60
2012,03,13,07,19,17.70
2012,03,13,07,20,14.50
2012,03,13,07,21,8.10
2012,03,13,07,22,17.70
2012,03,13,07,23,14.50
2012,03,13,07,24,8.10
2012,03,13,07,25,11.30
2012,03,13,07,26,11.30
2012,03,13,07,27,8.10
2012,03,13,07,28,8.10
2012,03,13,07,29,8.10
2012,03,13,07,30,4.80
2012,03,13,07,31,3.20
2012,03,13,07,32,4.80
2012,03,13,07,33,8.10
2012,03,13,07,34,4.80
2012,03,13,07,35,4.80
2012,03,13,07,36,6.40
2012,03,13,07,37,4.80
2012,03,13,07,46,4.80
2012,03,13,07,47,6.40
2012,03,13,07,48,4.80
2012,03,13,07,49,4.80
2012,03,13,07,50,4.80
2012,03,13,07,51,4.80
2012,03,13,07,52,6.40
2012,03,13,07,53,8.10
2012,03,13,07,54,8.10
2012,03,13,07,55,9.60
2012,03,13,07,56,9.60
2012,03,13,07,57,11.30
2012,03,13,07,58,11.30
2012,03,13,07,59,9.60
2012,03,13,08,00,11.30
2012,03,13,08,01,17.70
2012,03,13,08,02,20.90
2012,03,13,08,03,22.50
2012,03,13,08,04,12.90
2012,03,13,08,05,11.30
2012,03,13,08,06,11.30
2012,03,13,08,07,22.50
2012,03,13,08,08,17.70
2012,03,13,08,09,19.30
2012,03,13,08,10,19.30
2012,03,13,08,11,16.10
2012,03,13,08,12,20.90
2012,03,13,08,13,11.30
2012,03,13,08,14,16.10
2012,03,13,08,15,14.50
2012,03,13,08,16,17.70
2012,03,13,08,17,17.70
2012,03,13,08,18,17.70
2012,03,13,08,19,9.60
2012,03,13,08,20,14.50
2012,03,13,08,21,11.30
2012,03,13,08,22,11.30
2012,03,13,08,23,11.30
2012,03,13,08,24,12.90
2012,03,13,08,25,12.90
2012,03,13,08,26,9.60
2012,03,13,08,27,16.10
2012,03,13,08,28,11.30
2012,03,13,08,29,8.10
2012,03,13,08,30,9.60
2012,03,13,08,31,9.60
2012,03,13,08,32,9.60
2012,03,13,08,33,9.60
2012,03,13,08,34,8.10
2012,03,13,08,35,8.10
2012,03,13,08,36,8.10
2012,03,13,08,37,9.60
2012,03,13,08,38,9.60
2012,03,13,08,39,9.60
2012,03,13,08,40,8.10
2012,03,13,08,41,8.10
2012,03,13,08,42,8.10
2012,03,13,08,43,6.40
2012,03,13,08,44,11.30
2012,03,13,08,45,8.10
2012,03,13,08,46,6.40
2012,03,13,08,47,4.80
2012,03,13,08,48,11.30
2012,03,13,08,49,14.50
2012,03,13,08,50,12.90
2012,03,13,08,51,16.10
2012,03,13,08,52,14.50
2012,03,13,08,53,14.50
2012,03,13,08,54,14.50
2012,03,13,08,55,9.60
2012,03,13,08,56,9.60
2012,03,13,08,57,9.60
2012,03,13,08,58,11.30
2012,03,13,08,59,11.30
2012,03,13,09,00,11.30
2012,03,13,09,01,9.60
2012,03,13,09,02,9.60
2012,03,13,09,03,9.60
2012,03,13,09,04,9.60
2012,03,13,09,05,11.30
2012,03,13,09,06,12.90
2012,03,13,09,07,16.10
2012,03,13,09,08,12.90
2012,03,13,09,09,12.90
2012,03,13,09,10,12.90
2012,03,13,09,11,16.10
2012,03,13,09,12,14.50
2012,03,13,09,13,8.10
2012,03,13,09,14,8.10
2012,03,13,09,15,16.10
2012,03,13,09,16,14.50
2012,03,13,09,17,14.50
2012,03,13,09,18,14.50
2012,03,13,09,19,11.30
2012,03,13,09,20,8.10
2012,03,13,09,21,9.60
2012,03,13,09,22,8.10
2012,03,13,09,23,11.30
2012,03,13,09,24,8.10
2012,03,13,09,25,9.60
2012,03,13,09,26,9.60
2012,03,13,09,27,9.60
2012,03,13,09,28,9.60
2012,03,13,09,29,8.10
2012,03,13,09,30,11.30
2012,03,13,09,31,9.60
2012,03,13,09,32,16.10
2012,03,13,09,33,14.50
2012,03,13,09,34,14.50
2012,03,13,09,35,14.50
2012,03,13,09,36,11.30
2012,03,13,09,37,11.30
2012,03,13,09,38,9.60
2012,03,13,09,39,16.10
2012,03,13,09,40,11.30
2012,03,13,09,41,14.50
2012,03,13,09,42,8.10
2012,03,13,09,43,8.10
2012,03,13,09,44,9.60
2012,03,13,09,45,9.60
2012,03,13,09,46,16.10
2012,03,13,09,47,11.30
2012,03,13,09,48,14.50
2012,03,13,09,49,14.50
2012,03,13,09,50,11.30
2012,03,13,09,51,8.10
2012,03,13,09,52,11.30
2012,03,13,09,53,9.60
2012,03,13,09,54,6.40
2012,03,13,09,55,4.80
2012,03,13,09,56,8.10
2012,03,13,09,57,8.10
2012,03,13,09,58,6.40
2012,03,13,09,59,8.10
2012,03,13,10,00,8.10
2012,03,13,10,01,4.80
2012,03,13,10,02,6.40
2012,03,13,10,03,11.30
2012,03,13,10,04,11.30
2012,03,13,10,05,9.60
2012,03,13,10,06,9.60
2012,03,13,10,07,8.10
2012,03,13,10,08,8.10
2012,03,13,10,09,16.10
2012,03,13,10,10,9.60
2012,03,13,10,11,14.50
2012,03,13,10,12,9.60
2012,03,13,10,13,9.60
2012,03,13,10,14,8.10
2012,03,13,10,15,11.30
2012,03,13,10,16,9.60
2012,03,13,10,17,9.60
2012,03,13,10,18,9.60
2012,03,13,10,19,6.40
2012,03,13,10,20,9.60
2012,03,13,10,21,6.40
2012,03,13,10,22,11.30
2012,03,13,10,23,11.30
2012,03,13,10,24,14.50
2012,03,13,10,25,11.30
2012,03,13,10,26,17.70
2012,03,13,10,27,12.90
2012,03,13,10,28,11.30
2012,03,13,10,29,9.60
2012,03,13,10,30,8.10
2012,03,13,10,31,16.10
2012,03,13,10,32,14.50
2012,03,13,10,33,11.30
2012,03,13,10,34,8.10
2012,03,13,10,35,8.10
2012,03,13,10,36,9.60
2012,03,13,10,37,8.10
2012,03,13,10,38,9.60
2012,03,13,10,39,11.30
2012,03,13,10,40,9.60
2012,03,13,10,41,12.90
2012,03,13,10,42,9.60
2012,03,13,10,43,6.40
2012,03,13,10,44,11.30
2012,03,13,10,45,11.30
2012,03,13,10,46,16.10
2012,03,13,10,47,8.10
2012,03,13,10,48,9.60
2012,03,13,10,49,8.10
2012,03,13,10,50,3.20
2012,03,13,10,51,6.40
2012,03,13,10,52,6.40
2012,03,13,10,53,8.10
2012,03,13,10,54,11.30
2012,03,13,10,55,11.30
2012,03,13,10,56,11.30
2012,03,13,10,57,8.10
2012,03,13,10,58,11.30
2012,03,13,10,59,14.50
2012,03,13,11,00,9.60
2012,03,13,11,01,9.60
2012,03,13,11,02,8.10
2012,03,13,11,03,8.10
2012,03,13,11,04,8.10
2012,03,13,11,05,6.40
2012,03,13,11,06,11.30
2012,03,13,11,07,11.30
2012,03,13,11,08,11.30
2012,03,13,11,09,16.10
2012,03,13,11,10,14.50
2012,03,13,11,11,17.70
2012,03,13,11,12,19.30
2012,03,13,11,13,17.70
2012,03,13,11,14,19.30
2012,03,13,11,15,17.70
2012,03,13,11,16,11.30
2012,03,13,11,17,11.30
2012,03,13,11,18,14.50
2012,03,13,11,19,11.30
2012,03,13,11,20,11.30
2012,03,13,11,21,12.90
2012,03,13,11,22,19.30
2012,03,13,11,23,16.10
2012,03,13,11,24,14.50
2012,03,13,11,25,9.60
2012,03,13,11,26,16.10
2012,03,13,11,27,16.10
2012,03,13,11,28,16.10
2012,03,13,11,29,16.10
2012,03,13,11,30,17.70
2012,03,13,11,31,14.50
2012,03,13,11,32,16.10
2012,03,13,11,33,14.50
2012,03,13,11,34,16.10
2012,03,13,11,35,16.10
2012,03,13,11,36,9.60
2012,03,13,11,37,11.30
2012,03,13,11,38,14.50
2012,03,13,11,39,16.10
2012,03,13,11,40,17.70
2012,03,13,11,41,16.10
2012,03,13,11,42,16.10
2012,03,13,11,43,11.30
2012,03,13,11,44,9.60
2012,03,13,11,45,17.70
2012,03,13,11,46,19.30
2012,03,13,11,47,16.10
2012,03,13,11,48,14.50
2012,03,13,11,49,16.10
2012,03,13,11,50,14.50
2012,03,13,11,51,11.30
2012,03,13,11,52,17.70
2012,03,13,11,53,12.90
2012,03,13,11,54,16.10
2012,03,13,11,55,14.50
2012,03,13,11,56,12.90
2012,03,13,11,57,17.70
2012,03,13,11,58,14.50
2012,03,13,11,59,16.10
2012,03,13,12,00,12.90
2012,03,13,12,01,14.50
2012,03,13,12,02,14.50
2012,03,13,12,03,9.60
2012,03,13,12,04,9.60
2012,03,13,12,05,16.10
2012,03,13,12,06,19.30
2012,03,13,12,07,16.10
2012,03,13,12,08,17.70
2012,03,13,12,09,14.50
2012,03,13,12,10,14.50
2012,03,13,12,11,11.30
2012,03,13,12,12,9.60
2012,03,13,12,13,16.10
2012,03,13,12,14,16.10
2012,03,13,12,15,20.90
2012,03,13,12,16,19.30
2012,03,13,12,17,17.70
2012,03,13,12,18,17.70
2012,03,13,12,19,16.10
2012,03,13,12,20,16.10
2012,03,13,12,21,17.70
2012,03,13,12,22,17.70
2012,03,13,12,23,19.30
2012,03,13,12,24,11.30
2012,03,13,12,25,14.50
2012,03,13,12,26,14.50
2012,03,13,12,27,19.30
2012,03,13,12,28,16.10
2012,03,13,12,29,17.70
2012,03,13,12,30,17.70
2012,03,13,12,31,17.70
2012,03,13,12,32,14.50
2012,03,13,12,33,16.10
2012,03,13,12,34,14.50
2012,03,13,12,35,14.50
2012,03,13,12,36,16.10
2012,03,13,12,37,14.50
2012,03,13,12,38,14.50
2012,03,13,12,39,16.10
2012,03,13,12,40,14.50
2012,03,13,12,41,20.90
2012,03,13,12,42,17.70
2012,03,13,12,43,9.60
2012,03,13,12,44,14.50
2012,03,13,12,45,16.10
2012,03,13,12,46,19.30
2012,03,13,12,47,22.50
2012,03,13,12,48,22.50
2012,03,13,12,49,19.30
2012,03,13,12,50,17.70
2012,03,13,12,51,19.30
2012,03,13,12,52,19.30
2012,03,13,12,53,14.50
2012,03,13,12,54,20.90
2012,03,13,12,55,20.90
2012,03,13,12,56,14.50
2012,03,13,12,57,19.30
2012,03,13,12,58,20.90
2012,03,13,12,59,24.20
2012,03,13,13,00,17.70
2012,03,13,13,01,19.30
2012,03,13,13,02,17.70
2012,03,13,13,03,19.30
2012,03,13,13,04,19.30
2012,03,13,13,05,20.90
2012,03,13,13,06,17.70
2012,03,13,13,07,19.30
2012,03,13,13,08,11.30
2012,03,13,13,09,11.30
2012,03,13,13,10,16.10
2012,03,13,13,11,16.10
2012,03,13,13,12,14.50
2012,03,13,13,13,12.90
2012,03,13,13,14,11.30
2012,03,13,13,15,9.60
2012,03,13,13,16,17.70
2012,03,13,13,17,11.30
2012,03,13,13,18,11.30
2012,03,13,13,19,11.30
2012,03,13,13,20,16.10
2012,03,13,13,21,16.10
2012,03,13,13,22,14.50
2012,03,13,13,23,19.30
2012,03,13,13,24,19.30
2012,03,13,13,25,22.50
2012,03,13,13,26,27.40
2012,03,13,13,27,17.70
2012,03,13,13,28,16.10
2012,03,13,13,29,20.90
2012,03,13,13,30,20.90
2012,03,13,13,31,19.30
2012,03,13,13,32,17.70
2012,03,13,13,33,24.20
2012,03,13,13,34,24.20
2012,03,13,13,35,16.10
2012,03,13,13,36,20.90
2012,03,13,13,37,16.10
2012,03,13,13,38,19.30
2012,03,13,13,39,17.70
2012,03,13,13,40,16.10
2012,03,13,13,41,9.60
2012,03,13,13,42,22.50
2012,03,13,13,43,17.70
2012,03,13,13,44,16.10
2012,03,13,13,45,16.10
2012,03,13,13,46,16.10
2012,03,13,13,47,16.10
2012,03,13,13,48,19.30
2012,03,13,13,49,12.90
2012,03,13,13,50,17.70
2012,03,13,13,51,19.30
2012,03,13,13,52,19.30
2012,03,13,13,53,16.10
2012,03,13,13,54,14.50
2012,03,13,13,55,16.10
2012,03,13,13,56,20.90
2012,03,13,13,57,19.30
2012,03,13,13,58,24.20
2012,03,13,13,59,22.50
2012,03,13,14,00,16.10
2012,03,13,14,01,17.70
2012,03,13,14,02,17.70
2012,03,13,14,03,20.90
2012,03,13,14,04,24.20
2012,03,13,14,05,22.50
2012,03,13,14,06,20.90
2012,03,13,14,07,25.70
2012,03,13,14,08,25.70
2012,03,13,14,09,22.50
2012,03,13,14,10,19.30
2012,03,13,14,11,19.30
2012,03,13,14,12,19.30
2012,03,13,14,13,14.50
2012,03,13,14,14,11.30
2012,03,13,14,15,16.10
2012,03,13,14,16,16.10
2012,03,13,14,17,14.50
2012,03,13,14,18,12.90
2012,03,13,14,19,17.70
2012,03,13,14,20,20.90
2012,03,13,14,21,25.70
2012,03,13,14,22,24.20
2012,03,13,14,23,25.70
2012,03,13,14,24,20.90
2012,03,13,14,25,24.20
2012,03,13,14,26,19.30
2012,03,13,14,27,19.30
2012,03,13,14,28,17.70
2012,03,13,14,29,27.40
2012,03,13,14,30,25.70
2012,03,13,14,31,32.20
2012,03,13,14,32,24.20
2012,03,13,14,33,27.40
2012,03,13,14,34,30.60
2012,03,13,14,35,22.50
2012,03,13,14,36,17.70
2012,03,13,14,37,32.20
2012,03,13,14,38,35.40
2012,03,13,14,39,32.20
2012,03,13,14,40,20.90
2012,03,13,14,41,20.90
2012,03,13,14,42,27.40
2012,03,13,14,43,29.00
2012,03,13,14,44,35.40
2012,03,13,14,45,37.00
2012,03,13,14,46,33.80
2012,03,13,14,47,25.70
2012,03,13,14,48,29.00
2012,03,13,14,49,27.40
2012,03,13,14,50,22.50
2012,03,13,14,51,20.90
2012,03,13,14,52,32.20
2012,03,13,14,53,32.20
2012,03,13,14,54,24.20
2012,03,13,14,55,30.60
2012,03,13,14,56,22.50
2012,03,13,14,57,20.90
2012,03,13,14,58,20.90
2012,03,13,14,59,19.30
2012,03,13,15,00,30.60
2012,03,13,15,01,30.60
2012,03,13,15,02,41.80
2012,03,13,15,03,32.20
2012,03,13,15,04,22.50
2012,03,13,15,05,22.50
2012,03,13,15,06,29.00
2012,03,13,15,07,32.20
2012,03,13,15,08,27.40
2012,03,13,15,09,35.40
2012,03,13,15,10,43.50
2012,03,13,15,11,17.70
2012,03,13,15,12,19.30
2012,03,13,15,13,41.80
2012,03,13,15,14,32.20
2012,03,13,15,15,25.70
2012,03,13,15,16,16.10
2012,03,13,15,17,32.20
2012,03,13,15,18,35.40
2012,03,13,15,19,22.50
2012,03,13,15,20,24.20
2012,03,13,15,21,20.90
2012,03,13,15,22,20.90
2012,03,13,15,23,24.20
2012,03,13,15,24,20.90
2012,03,13,15,25,24.20
2012,03,13,15,26,9.60
2012,03,13,15,27,17.70
2012,03,13,15,28,20.90
2012,03,13,15,29,19.30
2012,03,13,15,30,24.20
2012,03,13,15,31,12.90
2012,03,13,15,32,25.70
2012,03,13,15,33,22.50
2012,03,13,15,34,20.90
2012,03,13,15,35,35.40
2012,03,13,15,36,20.90
2012,03,13,15,37,27.40
2012,03,13,15,38,27.40
2012,03,13,15,39,25.70
2012,03,13,15,40,24.20
2012,03,13,15,41,25.70
2012,03,13,15,42,22.50
2012,03,13,15,43,16.10
2012,03,13,15,44,24.20
2012,03,13,15,45,27.40
2012,03,13,15,46,27.40
2012,03,13,15,47,25.70
2012,03,13,15,48,24.20
2012,03,13,15,49,24.20
2012,03,13,15,50,22.50
2012,03,13,15,51,19.30
2012,03,13,15,52,20.90
2012,03,13,15,53,19.30
2012,03,13,15,54,22.50
2012,03,13,15,55,22.50
2012,03,13,15,56,27.40
2012,03,13,15,57,30.60
2012,03,13,15,58,32.20
2012,03,13,15,59,33.80
2012,03,13,16,00,24.20
2012,03,13,16,01,19.30
2012,03,13,16,02,29.00
2012,03,13,16,03,25.70
2012,03,13,16,04,30.60
2012,03,13,16,05,29.00
2012,03,13,16,06,17.70
2012,03,13,16,07,27.40
2012,03,13,16,08,22.50
2012,03,13,16,09,30.60
2012,03,13,16,10,20.90
2012,03,13,16,11,27.40
2012,03,13,16,12,25.70
2012,03,13,16,13,27.40
2012,03,13,16,14,19.30
2012,03,13,16,15,19.30
2012,03,13,16,16,24.20
2012,03,13,16,17,24.20
2012,03,13,16,18,19.30
2012,03,13,16,19,19.30
2012,03,13,16,20,17.70
2012,03,13,16,21,14.50
2012,03,13,16,22,27.40
2012,03,13,16,23,25.70
2012,03,13,16,24,22.50
2012,03,13,16,25,19.30
2012,03,13,16,26,25.70
2012,03,13,16,27,32.20
2012,03,13,16,28,33.80
2012,03,13,16,29,33.80
2012,03,13,16,30,40.20
2012,03,13,16,31,40.20
2012,03,13,16,32,30.60
2012,03,13,16,33,32.20
2012,03,13,16,34,32.20
2012,03,13,16,35,29.00
2012,03,13,16,36,27.40
2012,03,13,16,37,32.20
2012,03,13,16,38,25.70
2012,03,13,16,39,22.50
2012,03,13,16,40,29.00
2012,03,13,16,41,30.60
2012,03,13,16,42,30.60
2012,03,13,16,43,29.00
2012,03,13,16,44,32.20
2012,03,13,16,45,20.90
2012,03,13,16,46,22.50
2012,03,13,16,47,20.90
2012,03,13,16,48,33.80
2012,03,13,16,49,30.60
2012,03,13,16,50,29.00
2012,03,13,16,51,29.00
2012,03,13,16,52,27.40
2012,03,13,16,53,27.40
2012,03,13,16,54,25.70
2012,03,13,16,55,32.20
2012,03,13,16,56,27.40
2012,03,13,16,57,32.20
2012,03,13,16,58,30.60
2012,03,13,16,59,29.00
2012,03,13,17,00,22.50
2012,03,13,17,01,24.20
2012,03,13,17,02,17.70
2012,03,13,17,03,27.40
2012,03,13,17,04,25.70
2012,03,13,17,05,22.50
2012,03,13,17,06,20.90
2012,03,13,17,07,27.40
2012,03,13,17,08,24.20
2012,03,13,17,09,19.30
2012,03,13,17,10,32.20
2012,03,13,17,11,27.40
2012,03,13,17,12,22.50
2012,03,13,17,13,22.50
2012,03,13,17,14,22.50
2012,03,13,17,15,24.20
2012,03,13,17,16,27.40
2012,03,13,17,17,27.40
2012,03,13,17,18,16.10
2012,03,13,17,19,22.50
2012,03,13,17,20,25.70
2012,03,13,17,21,27.40
2012,03,13,17,22,27.40
2012,03,13,17,23,22.50
2012,03,13,17,24,37.00
2012,03,13,17,25,27.40
2012,03,13,17,26,32.20
2012,03,13,17,27,27.40
2012,03,13,17,28,27.40
2012,03,13,17,29,40.20
2012,03,13,17,30,25.70
2012,03,13,17,31,27.40
2012,03,13,17,32,33.80
2012,03,13,17,33,38.60
2012,03,13,17,34,20.90
2012,03,13,17,35,35.40
2012,03,13,17,36,25.70
2012,03,13,17,37,32.20
2012,03,13,17,38,27.40
2012,03,13,17,39,35.40
2012,03,13,17,40,29.00
2012,03,13,17,41,25.70
2012,03,13,17,42,27.40
2012,03,13,17,43,24.20
2012,03,13,17,44,24.20
2012,03,13,17,45,22.50
2012,03,13,17,46,17.70
2012,03,13,17,47,19.30
2012,03,13,17,48,27.40
2012,03,13,17,49,25.70
2012,03,13,17,50,27.40
2012,03,13,17,51,22.50
2012,03,13,17,52,19.30
2012,03,13,17,53,20.90
2012,03,13,17,54,25.70
2012,03,13,17,55,20.90
2012,03,13,17,56,22.50
2012,03,13,17,57,14.50
2012,03,13,17,58,14.50
2012,03,13,17,59,9.60
2012,03,13,18,00,19.30
2012,03,13,18,01,20.90
2012,03,13,18,02,16.10
2012,03,13,18,03,20.90
2012,03,13,18,04,20.90
2012,03,13,18,05,16.10
2012,03,13,18,06,16.10
2012,03,13,18,07,14.50
2012,03,13,18,08,16.10
2012,03,13,18,09,11.30
2012,03,13,18,10,9.60
2012,03,13,18,11,9.60
2012,03,13,18,12,16.10
2012,03,13,18,13,14.50
2012,03,13,18,14,14.50
2012,03,13,18,15,17.70
2012,03,13,18,16,11.30
2012,03,13,18,17,14.50
2012,03,13,18,18,11.30
2012,03,13,18,19,11.30
2012,03,13,18,20,14.50
2012,03,13,18,21,12.90
2012,03,13,18,22,9.60
2012,03,13,18,23,12.90
2012,03,13,18,24,9.60
2012,03,13,18,25,11.30
2012,03,13,18,26,12.90
2012,03,13,18,27,16.10
2012,03,13,18,28,16.10
2012,03,13,18,29,14.50
2012,03,13,18,30,9.60
2012,03,13,18,31,8.10
2012,03,13,18,32,14.50
2012,03,13,18,33,9.60
2012,03,13,18,34,12.90
2012,03,13,18,35,6.40
2012,03,13,18,36,17.70
2012,03,13,18,37,19.30
2012,03,13,18,38,17.70
2012,03,13,18,39,20.90
2012,03,13,18,40,17.70
2012,03,13,18,41,16.10
2012,03,13,18,42,19.30
2012,03,13,18,43,17.70
2012,03,13,18,44,12.90
2012,03,13,18,45,17.70
2012,03,13,18,46,19.30
2012,03,13,18,47,17.70
2012,03,13,18,48,8.10
2012,03,13,18,49,11.30
2012,03,13,18,50,11.30
2012,03,13,18,51,9.60